This is the latest recevied weather packets stored in our database for station/object VE3EP-1. If no packets are shown the sender has not sent any weather packets the latest 10 day(s).
| Time | Temp. | Humidity | Pressure | Rain* | Wind** | Luminosity | Snow |
|---|---|---|---|---|---|---|---|
| 1788176647 | 18.33° C | 97% | 1021.8 hPa | 0 mm | - | - | - |
| 1788176048 | 18.33° C | 97% | 1021.8 hPa | 0 mm | - | - | - |
| 1788175447 | 17.78° C | 97% | 1021.8 hPa | 0 mm | - | - | - |
| 1788174847 | 17.78° C | 97% | 1021.8 hPa | 0 mm | - | - | - |
| 1788174248 | 18.33° C | 97% | 1022 hPa | 0 mm | - | - | - |
| 1788173649 | 17.78° C | 97% | 1022 hPa | 0 mm | - | - | - |
| 1788173047 | 17.22° C | 97% | 1021.8 hPa | 0 mm | - | - | - |
| 1788172449 | 17.22° C | 97% | 1021.7 hPa | 0 mm | - | - | - |
| 1788171847 | 17.22° C | 97% | 1021.6 hPa | 0 mm | - | - | - |
| 1788171248 | 17.22° C | 97% | 1021.6 hPa | 0 mm | - | - | - |
| 1788169447 | 17.22° C | 96% | 1021.4 hPa | 0 mm | - | - | - |
| 1788168849 | 17.22° C | 96% | 1021.6 hPa | 0 mm | - | - | - |
| 1788168248 | 17.22° C | 96% | 1021.6 hPa | 0 mm | - | - | - |
| 1788167648 | 17.22° C | 96% | 1021.6 hPa | 0 mm | - | - | - |
| 1788166448 | 17.78° C | 95% | 1021.4 hPa | 0 mm | - | - | - |
| 1788165248 | 18.33° C | 94% | 1021.5 hPa | 0 mm | - | - | - |
| 1788164648 | 18.89° C | 94% | 1021.5 hPa | 0 mm | - | - | - |
| 1788164047 | 18.89° C | 94% | 1021.7 hPa | 0 mm | - | - | - |
| 1788163447 | 19.44° C | 93% | 1021.7 hPa | 0 mm | - | - | - |
| 1788162248 | 19.44° C | 93% | 1021.5 hPa | 0 mm | - | - | - |
| 1788161647 | 19.44° C | 93% | 1021.8 hPa | 0 mm | - | - | - |
| 1788161047 | 19.44° C | 94% | 1022 hPa | 0 mm | - | - | - |
| 1788160448 | 19.44° C | 93% | 1021.7 hPa | 0 mm | - | - | - |
| 1788159247 | 19.44° C | 92% | 1021.7 hPa | 0 mm | - | - | - |
| 1788158647 | 20° C | 92% | 1021.8 hPa | 0 mm | - | - | - |
* Rain latest hour (hover to see other rain measurements)
** Current wind speed in m/s (hover to see current wind gust speed)